This is the latest recevied weather packets stored in our database for station/object NB9X. If no packets are shown the sender has not sent any weather packets the latest 1 day(s).
| Time | Temp. | Humidity | Pressure | Rain* | Wind** | Luminosity | Snow |
|---|---|---|---|---|---|---|---|
| 1778108288 | 26.67° C | 100% | 1014.5 hPa | 0 mm | - | - | - |
| 1778107988 | 27.22° C | 100% | 1014.5 hPa | 0 mm | - | - | - |
| 1778107688 | 27.22° C | 100% | 1014.4 hPa | 0 mm | - | - | - |
| 1778107088 | 27.78° C | 100% | 1014.4 hPa | 0 mm | - | - | - |
| 1778106788 | 27.78° C | 100% | 1014.4 hPa | 0 mm | - | - | - |
| 1778106488 | 28.89° C | 100% | 1014.4 hPa | 0 mm | - | - | - |
| 1778105888 | 29.44° C | 100% | 1014.6 hPa | 0 mm | - | - | - |
| 1778104688 | 31.11° C | 100% | 1014.6 hPa | 0 mm | - | - | - |
| 1778104088 | 31.11° C | 100% | 1014.6 hPa | 0 mm | - | - | - |
| 1778103889 | 31.11° C | 100% | 1014.6 hPa | 0 mm | - | - | - |
| 1778103488 | 31.67° C | 100% | 1014.6 hPa | 0 mm | - | - | - |
| 1778102588 | 31.67° C | 100% | 1014.7 hPa | 0 mm | - | - | - |
| 1778101088 | 31.11° C | 100% | 1014.6 hPa | 0 mm | - | - | - |
| 1778099288 | 31.11° C | 100% | 1014.8 hPa | 0 mm | - | - | - |
| 1778097488 | 31.67° C | 100% | 1015 hPa | 0 mm | - | - | - |
| 1778096888 | 31.11° C | 100% | 1014.9 hPa | 0 mm | - | - | - |
| 1778095088 | 31.11° C | 100% | 1015.2 hPa | 0 mm | - | - | - |
| 1778087511 | 31.11° C | 100% | 1016.1 hPa | 0 mm | - | - | - |
| 1778086434 | 30.56° C | 100% | 1016.3 hPa | 0 mm | - | - | - |
| 1778085528 | 31.67° C | 100% | 1016.3 hPa | 0 mm | - | - | - |
| 1778081889 | 30° C | 100% | 1016.1 hPa | 0 mm | - | - | - |
| 1778080776 | 29.44° C | 100% | 1016 hPa | 0 mm | - | - | - |
| 1778077089 | 27.78° C | 100% | 1015.9 hPa | 0 mm | - | - | - |
| 1778076789 | 27.78° C | 100% | 1015.9 hPa | 0 mm | - | - | - |
| 1778076563 | 27.22° C | 100% | 1015.9 hPa | 0 mm | - | - | - |
* Rain latest hour (hover to see other rain measurements)
** Current wind speed in m/s (hover to see current wind gust speed)